BREEZE-M DEB

基本信息
目录编号:
39325
目录名称:
BREEZE-M DEB
国际标识:
2008-011DC
轨道中心:
EARTH
物体状态:
在轨
发射日期:
2008-03-14 UTC
轨道信息
数据来源: 国际轨道数据
星历时间: 2026-07-12T00:13:32+0800
半长轴: 19769.724km
偏心率: 0.6558762
轨道倾角: 49.489°
近地点辐角: 104.941°
升交点赤经: 78.515°
平近点角: 331.598°
近地点: 425.095km
远地点: 26358.079km
周期: 461.063分钟
每日圈数: 3.123215
详细信息
发射场:
TTMTR
轨道高度:
LEO
数据来源:
AOE Integration Group
参考系:
TEME
时间系统:
UTC
历元类型:
SGP4
2D轨道图
3D轨道图
轨道高度分析图
轨道倾角分析图
轨道综合分析图
查看轨道综合分析图